Weather in Šilalė

Lithuania     55°29′27″N   22°10′56″E
temp.,
°C
wind,
m/s
gust,
m/s
humid.,
%
clouds,
%
prec.,
mm/h
press.,
hPa
HPBL,
m
6 august, fri
fri600:00+13ene41185100 0.0 1011278
03:00+12ene51386100 0.0 1010481
06:00+11ne71680100 0.0 1009632
09:00+13ne81680100 0.0 1007759
12:00+15ne81474100 0.1 1006755
15:00+13ne71591100 1.9 1004730
18:00+13ne81694100 1.2 1003767
21:00+13ne71495100 1.7 1002812
7 august, sat
sat700:00+14ne61397100 0.0 1001667
03:00+14ne61198100 2.0 999573
06:00+14ne4998100 2.4 999407
09:00+14nne3698100 2.5 1000287
12:00+16nw2297100 0.2 1001245
15:00+16wnw3595100 0.4 1003458
18:00+18wnw3687100 0.1 1004601
21:00+16w499697 0.4 1006463
8 august, sun
sun800:00+14w379599 0.0 1008182
03:00+12sw33965 0.0 101052
06:00+11ssw129516 0.0 101014
09:00+16se3582100 0.0 1010235
12:00+21se4564100 0.0 1010582
15:00+23se6859100 0.0 10091346
18:00+18ese379498 2.4 1008190
21:00+17sw5109623 2.7 1009544
9 august, mon
mon900:00+17w7129479 0.2 1011692
03:00+14wsw389829 0.2 1013258
06:00+13ssw369821 0.0 1014133
09:00+17ssw488859 0.2 1015323
12:00+21wsw696017 0.1 10161402
15:00+20wsw687081 1.2 10181214
18:00+19wsw576632 0.2 10181151
21:00+15wsw23901 0.2 101952
10 august, tue
tue1000:00+13sw229478 0.0 101916
03:00+13s2294100 0.0 101929
06:00+14sse3491100 0.0 101993
09:00+17sse467660 0.0 1018277
12:00+19ssw3564100 0.1 1018299
15:00+22ssw465078 0.1 10171231
18:00+19ssw4679100 1.5 1016619
21:00+15se3495100 3.6 101686